Location: Bailleul
(50.3375°N, 2.8513°E)
Time: 08:50:11
(UTC+00:00)

COSMOS 2455 - Pass Details

Date: 19 April 2021
Orbit: 902 x 907 km, 67.1° (Epoch: 05 May)

Event Time Altitude Azimuth Distance (km) Brightness Sun altitude
Exits shadow 21:20:46 38° 148° (SSE) 1,351 3.2 -20.4°
Maximum altitude 21:22:06 44° 115° (ESE) 1,238 3.1 -20.5°
Drops below altitude 10° 21:27:46 10° 46° (NE) 2,600 5.3 -21.1°
Sets 21:30:23 0° 40° (NE) 3,545 6.1 -21.3°
